KGYB

Details ICAO KGYB
Name GIDDINGS LEE CO
Region United States
Timezone America/Chicago (UTC-5.0)
Plans Departing 1
Arriving 1
Stats Elevation 485 ft / 148 m (AMSL)
Location 30.169266° -96.980018°
Runways 1
Magnetic Variation 3.371° E
Sunrise 2018-05-23 11:31:22 UTC / 2018-05-23 06:31:22 Local
Sunset 2018-05-24 01:20:53 UTC / 2018-05-23 20:20:53 Local
Advertisement - Login to hide

Runways

ID Width Length Bearing (true) Bearing (mag) Surface Threshold Offset Overrun Length
17 75 ft / 23 m 4,014 ft / 1,223 m 174.30° 170.93° Asphalt 0 ft / 0 m 0 ft / 0 m
35 75 ft / 23 m 4,014 ft / 1,223 m 354.30° 350.93° Asphalt 0 ft / 0 m 0 ft / 0 m

Map

Weather


0- 5 10 15 20 25 30 35+ Temperature / ° C

Clouds and Precipitation
Forecast for 2018-05-24 00:00 UTC. Updated 3 hours ago

Ground ~20,000 ft ~40,000 ft Winds

METAR

KGYB 240235Z AUTO 11004KT 10SM SCT027 24/21 A3002 RMK AO2 T02390213

TAF

Not found

Frequencies

Recorded 119.22 MHz AWOS 3
Approach 132.15 MHz HOUSTON CNTR
Unicom 123.05 MHz CTAF/UNICOM
Warning: Do not use this data for real-world aviation or navigation. No guarantee of current accuracy is given.